Canby, MN

12:07 PM CST on January 20, 2017 (GMT -0600)
Canby

Weather History for KCNB - December, 2012

Change the Weather History Date:

Sunday, December 9, 2012

  Actual Average (KMML) Record (KMML)
Temperature  
Mean Temperature 16 °F -  
Max Temperature 32 °F 27 °F 55 °F (1990)
Min Temperature 0 °F 12 °F -18 °F (1977)
Degree Days  
Heating Degree Days 48    
Moisture  
Dew Point 16 °F    
Average Humidity 92    
Maximum Humidity 100    
Minimum Humidity 77    
Precipitation  
Precipitation 0.08 in - - ()
Sea Level Pressure  
Sea Level Pressure 29.94 in    
Wind  
Wind Speed 15 mph (NNW)    
Max Wind Speed 32 mph    
Max Gust Speed 43 mph    
Visibility 2 miles    
Events Snow    
Averages and records for this station are not official NWS values.
T = Trace of Precipitation, MM = Missing Value Source: NWS Daily Summary

Daily Weather History Graph

Daily Weather History Graph

Search for Another Location

Airport or City:

Trip Planner

Search our weather history database for the weather conditions in past years. The results will help you decide how hot, cold, wet, or windy it might be!

Date:

Astronomy

Dec. 09, 2012 Rise Set
Actual Time 7:50 AM CST 4:44 PM CST
Civil Twilight 7:17 AM CST 5:17 PM CST
Nautical Twilight 6:40 AM CST 5:54 PM CST
Astronomical Twilight 6:05 AM CST 6:30 PM CST
Moon 3:17 AM CST (12/9) 1:58 PM CST (12/9)
Length of Visible Light 10h 00m
Length of Day
8h 53m
Waning Crescent, 18% of the Moon is Illuminated
Dec 9
Waning Crescent
Dec 13
New
Dec 19
First Quarter
Dec 28
Full
Jan 4
Last Quarter

Hourly Weather History & Observations

Time (CST) Temp. Windchill Dew Point Humidity Pressure Visibility Wind Dir Wind Speed Gust Speed Precip Events Conditions
12:15 AM 29.8 °F 20.3 °F 29.7 °F 99% 29.85 in 2.5 mi East 11.5 mph - N/A Snow Light Snow
12:35 AM 30.0 °F 22.4 °F 29.8 °F 99% 29.85 in 2.5 mi ESE 8.1 mph - N/A Snow Light Snow
12:55 AM 30.2 °F 23.4 °F 30.0 °F 99% 29.85 in 2.5 mi ESE 6.9 mph - N/A Snow Light Snow
1:15 AM 30.4 °F 23.6 °F 30.2 °F 99% 29.85 in 2.5 mi ESE 6.9 mph - N/A Snow Light Snow
1:35 AM 30.7 °F 24.1 °F 30.6 °F 99% 29.84 in 2.0 mi ESE 6.9 mph - N/A Snow Light Snow
1:55 AM 31.1 °F 25.4 °F 31.1 °F 100% 29.83 in 1.5 mi ESE 5.8 mph - N/A Snow Light Snow
2:15 AM 31.6 °F 24.4 °F 31.6 °F 100% 29.85 in 1.2 mi ESE 8.1 mph - N/A Snow Light Snow
2:35 AM 32.0 °F 25.6 °F 32.0 °F 100% 29.83 in 1.5 mi East 6.9 mph - N/A Snow Light Snow
2:55 AM 32.0 °F 24.8 °F 32.0 °F 100% 29.83 in 1.8 mi East 8.1 mph - N/A Snow Light Snow
3:15 AM 32.0 °F 24.8 °F 32.0 °F 100% 29.83 in 1.5 mi East 8.1 mph - N/A Snow Light Snow
3:35 AM 32.0 °F 24.8 °F 32.0 °F 100% 29.81 in 1.8 mi East 8.1 mph - N/A Snow Light Snow
3:55 AM 32.0 °F 24.2 °F 32.0 °F 100% 29.81 in 1.2 mi East 9.2 mph - N/A Snow Light Snow
4:15 AM 32.0 °F 24.8 °F 32.0 °F 100% 29.81 in 1.8 mi East 8.1 mph - N/A Snow Light Snow
4:35 AM 32.0 °F 24.2 °F 32.0 °F 100% 29.81 in 1.8 mi East 9.2 mph - 0.01 in Snow Light Snow
4:55 AM 32.0 °F 24.8 °F 32.0 °F 100% 29.81 in 1.2 mi ENE 8.1 mph - 0.01 in Snow Light Snow
5:15 AM 32.0 °F 24.2 °F 32.0 °F 100% 29.80 in 1.0 mi ENE 9.2 mph - N/A Snow Light Snow
5:35 AM 32.0 °F 24.8 °F 32.0 °F 100% 29.80 in 1.0 mi ENE 8.1 mph - N/A Snow Light Snow
6:15 AM 32.0 °F 24.8 °F 32.0 °F 100% 29.81 in 0.8 mi ENE 8.1 mph - 0.02 in Snow Snow
6:35 AM 32.0 °F 25.6 °F 32.0 °F 100% 29.80 in 0.8 mi ENE 6.9 mph - 0.03 in Snow Snow
6:55 AM 28.6 °F 21.5 °F 28.6 °F 100% 29.81 in 1.0 mi NW 6.9 mph - 0.04 in Snow Snow
7:15 AM 27.7 °F 18.2 °F 27.7 °F 100% 29.81 in 0.8 mi NW 10.4 mph - 0.01 in Snow Snow
7:35 AM 28.6 °F 22.4 °F 28.8 °F 100% 29.81 in 1.0 mi NW 5.8 mph - 0.02 in Snow Snow
7:55 AM 32.0 °F 24.8 °F 32.0 °F 100% 29.81 in 1.0 mi North 8.1 mph - 0.03 in Snow Light Snow
8:15 AM 31.8 °F 25.4 °F 31.8 °F 100% 29.82 in 0.5 mi North 6.9 mph - N/A Snow Snow
8:35 AM 30.7 °F 21.4 °F 30.7 °F 100% 29.82 in 0.5 mi North 11.5 mph 17.3 mph N/A Snow Light Snow
8:55 AM 30.7 °F 20.4 °F 30.7 °F 100% 29.83 in 0.5 mi North 13.8 mph - N/A Snow Snow
9:15 AM 30.2 °F 19.3 °F 30.2 °F 100% 29.83 in 0.5 mi NNW 15.0 mph 18.4 mph N/A Snow Light Snow
9:35 AM 26.2 °F 13.0 °F 25.7 °F 98% 29.85 in 0.5 mi NW 18.4 mph 24.2 mph N/A Snow Snow
9:55 AM 23.9 °F 9.1 °F 23.2 °F 97% 29.86 in 0.2 mi NNW 20.7 mph 28.8 mph N/A Snow Snow
10:15 AM 22.8 °F 7.4 °F 21.7 °F 96% 29.88 in 0.2 mi NW 21.9 mph 31.1 mph N/A Snow Snow
10:35 AM 21.2 °F 4.5 °F 19.9 °F 95% 29.89 in 0.5 mi NNW 24.2 mph 33.4 mph N/A Snow Snow
10:55 AM 18.3 °F -0.0 °F 16.7 °F 93% 29.90 in 0.2 mi NNW 26.5 mph 33.4 mph N/A Snow Snow
11:15 AM 16.2 °F -2.9 °F 14.2 °F 92% 29.90 in 0.2 mi NW 26.5 mph 33.4 mph N/A Snow Snow
11:35 AM 14.7 °F -5.8 °F 12.7 °F 92% 29.90 in 0.2 mi NW 29.9 mph 36.8 mph N/A Snow Snow
11:55 AM 14.2 °F -5.6 °F 12.0 °F 91% 29.91 in 0.2 mi NW 26.5 mph 36.8 mph N/A Snow Snow
12:15 PM 13.5 °F -7.9 °F 10.9 °F 90% 29.92 in 0.2 mi NW 31.1 mph 42.6 mph N/A Snow Snow
12:35 PM 12.9 °F -8.9 °F 10.6 °F 90% 29.92 in 0.2 mi NNW 32.2 mph 42.6 mph N/A Snow Snow
12:55 PM 12.0 °F -8.8 °F 9.7 °F 90% 29.93 in 0.2 mi NW 27.6 mph 40.3 mph N/A Snow Snow
1:15 PM 12.2 °F -8.2 °F 9.5 °F 89% 29.93 in 0.2 mi NW 26.5 mph 36.8 mph N/A Snow Snow
1:35 PM 11.7 °F -9.0 °F 9.0 °F 89% 29.94 in 0.2 mi NNW 26.5 mph 42.6 mph N/A Snow Snow
1:55 PM 11.3 °F -10.1 °F 9.0 °F 90% 29.95 in 0.2 mi NNW 28.8 mph 40.3 mph N/A Snow Snow
2:15 PM 11.3 °F -10.5 °F 8.6 °F 89% 29.96 in 0.2 mi NNW 29.9 mph 39.1 mph N/A Snow Light Snow
2:35 PM 11.1 °F -10.7 °F 8.6 °F 90% 29.97 in 0.2 mi NNW 29.9 mph 38.0 mph N/A Snow Snow
2:56 PM 10.6 °F -10.8 °F 8.2 °F 90% 29.98 in 0.2 mi NW 27.6 mph 38.0 mph N/A Snow Snow
3:15 PM 9.9 °F -12.4 °F 7.3 °F 90% 30.00 in 0.2 mi NNW 29.9 mph 36.8 mph N/A Snow Snow
3:35 PM 9.5 °F -11.9 °F 7.2 °F 90% 30.01 in 0.2 mi NNW 26.5 mph 36.8 mph N/A Snow Snow
3:55 PM 9.5 °F -12.6 °F 7.2 °F 90% 30.02 in 0.2 mi NNW 28.8 mph 36.8 mph N/A Snow Snow
4:15 PM 9.5 °F -11.1 °F 7.3 °F 91% 30.04 in 0.5 mi NNW 24.2 mph 35.7 mph N/A Snow Light Snow
4:35 PM 9.1 °F -12.0 °F 6.8 °F 90% 30.04 in 0.5 mi NW 25.3 mph 34.5 mph N/A Snow Light Snow
4:55 PM 8.8 °F -12.8 °F 6.6 °F 91% 30.05 in 0.5 mi NNW 26.5 mph 33.4 mph N/A Snow Snow
5:15 PM 8.4 °F -13.3 °F 5.9 °F 89% 30.06 in 0.8 mi NNW 26.5 mph 35.7 mph N/A Snow Snow
5:35 PM 8.4 °F -12.9 °F 5.9 °F 89% 30.07 in 1.0 mi NW 25.3 mph 35.7 mph N/A Snow Light Snow
5:55 PM 8.4 °F -12.5 °F 5.7 °F 89% 30.07 in 1.0 mi NNW 24.2 mph 34.5 mph N/A Snow Light Snow
6:15 PM 9.1 °F -12.3 °F 6.1 °F 87% 30.07 in 1.5 mi NNW 26.5 mph 35.7 mph N/A Snow Light Snow
6:35 PM 8.6 °F -12.7 °F 5.7 °F 88% 30.09 in 1.0 mi NNW 25.3 mph 39.1 mph N/A Snow Light Snow
6:55 PM 8.6 °F -10.5 °F 5.5 °F 87% 30.10 in 1.0 mi NNW 19.6 mph 36.8 mph N/A Snow Light Snow
7:15 PM 8.4 °F -12.5 °F 5.0 °F 86% 30.10 in 2.5 mi NW 24.2 mph 32.2 mph N/A Snow Light Snow
7:35 PM 8.1 °F -12.2 °F 4.3 °F 85% 30.11 in 1.8 mi NW 21.9 mph 35.7 mph N/A Snow Light Snow
7:55 PM 7.3 °F -13.1 °F 3.7 °F 85% 30.12 in 2.5 mi NW 21.9 mph 31.1 mph N/A Snow Light Snow
8:15 PM 6.6 °F -15.7 °F 2.8 °F 84% 30.11 in 2.0 mi NNW 26.5 mph 32.2 mph N/A Snow Light Snow
8:35 PM 6.4 °F -15.2 °F 2.3 °F 83% 30.12 in 2.0 mi NW 24.2 mph 35.7 mph N/A Snow Light Snow
8:55 PM 5.9 °F -15.5 °F 1.6 °F 82% 30.12 in 3.0 mi NW 23.0 mph 31.1 mph N/A   Haze
9:15 PM 5.4 °F -16.6 °F 0.9 °F 82% 30.12 in 4.0 mi NW 24.2 mph 28.8 mph N/A   Overcast
9:35 PM 4.8 °F -16.0 °F 0.1 °F 81% 30.12 in 3.0 mi NW 20.7 mph 29.9 mph N/A   Haze
9:55 PM 4.5 °F -14.9 °F -0.4 °F 80% 30.12 in 4.0 mi NW 17.3 mph 28.8 mph N/A   Haze
10:15 PM 3.9 °F -15.0 °F -1.3 °F 79% 30.11 in 7.0 mi NW 16.1 mph 25.3 mph N/A   Overcast
10:55 PM 1.9 °F -18.1 °F -3.6 °F 77% 30.12 in 7.0 mi NW 17.3 mph - N/A   Scattered Clouds
11:15 PM 1.4 °F -18.2 °F -4.0 °F 78% 30.11 in 10.0 mi NW 16.1 mph 20.7 mph N/A   Clear
11:35 PM 1.2 °F -18.4 °F -4.0 °F 79% 30.11 in 10.0 mi NW 16.1 mph 23.0 mph N/A   Clear
11:55 PM 0.9 °F -18.3 °F -4.4 °F 79% 30.12 in 10.0 mi NW 15.0 mph - N/A   Clear